Weather History for KISP - February, 2012

Change the Weather History Date:

Saturday, February 18, 2012

  Actual Average Record
Temperature  
Mean Temperature 39 °F 33 °F  
Max Temperature 46 °F 41 °F 60 °F (2011)
Min Temperature 32 °F 26 °F 7 °F (2015)
Degree Days  
Heating Degree Days 26 32  
Month to date heating degree days 495 595  
Since 1 July heating degree days 2862 3587  
Cooling Degree Days 0 0  
Month to date cooling degree days 0 0  
Year to date cooling degree days 0 0  
Moisture  
Dew Point 24 °F    
Average Humidity 58    
Maximum Humidity 82    
Minimum Humidity 33    
Precipitation  
Precipitation T in 0.12 in 0.93 in (1999)
Month to date precipitation 0.37 1.98  
Year to date precipitation 3.03 5.62  
Snow  
Snow 0.00 in 0.30 in 2.00 in (2014)
Month to date snowfall 0.6 4.5  
Since 1 July snowfall 4.7 17.1  
Snow Depth 0.00 in    
Sea Level Pressure  
Sea Level Pressure 29.99 in    
Wind  
Wind Speed 8 mph (West)    
Max Wind Speed 18 mph    
Max Gust Speed 23 mph    
Visibility 10 miles    
Events      
T = Trace of Precipitation, MM = Missing Value Source: NWS Daily Summary

Daily Weather History Graph

Daily Weather History Graph

Search for Another Location

Airport or City:

Trip Planner

Search our weather history database for the weather conditions in past years. The results will help you decide how hot, cold, wet, or windy it might be!

Date:

Astronomy

Feb. 18, 2012 Rise Set
Actual Time 6:43 AM EST 5:30 PM EST
Civil Twilight 6:15 AM EST 5:58 PM EST
Nautical Twilight 5:43 AM EST 6:30 PM EST
Astronomical Twilight 5:11 AM EST 7:01 PM EST
Moon 4:21 AM EST (2/18) 2:23 PM EST (2/18)
Length of Visible Light 11h 42m
Length of Day
10h 47m
Waning Crescent, 11% of the Moon is Illuminated
Feb 18
Waning Crescent
Feb 21
New
Feb 29
First Quarter
Mar 8
Full
Mar 14
Last Quarter

Hourly Weather History & Observations

Time (EST) Temp. Windchill Dew Point Humidity Pressure Visibility Wind Dir Wind Speed Gust Speed Precip Events Conditions
12:56 AM 37.9 °F 32.1 °F 23.0 °F 55% 29.98 in 10.0 mi WNW 8.1 mph - N/A   Clear
1:56 AM 35.1 °F 29.3 °F 23.0 °F 61% 29.99 in 10.0 mi WNW 6.9 mph - N/A   Clear
2:56 AM 33.1 °F 26.9 °F 23.0 °F 66% 30.01 in 10.0 mi West 6.9 mph - N/A   Clear
3:56 AM 36.0 °F 26.7 °F 21.0 °F 55% 30.01 in 10.0 mi WNW 15.0 mph 21.9 mph N/A   Clear
4:56 AM 35.1 °F 30.1 °F 19.9 °F 54% 30.04 in 10.0 mi WNW 5.8 mph - N/A   Clear
5:56 AM 34.0 °F 28.8 °F 19.9 °F 56% 30.06 in 10.0 mi West 5.8 mph - N/A   Clear
6:56 AM 33.8 °F 29.6 °F 21.2 °F 60% 30.06 in 10.0 mi WNW 4.6 mph - N/A   Partly Cloudy
7:56 AM 35.6 °F - 21.2 °F 56% 30.06 in 10.0 mi Calm Calm - N/A   Scattered Clouds
8:56 AM 39.9 °F 35.8 °F 21.9 °F 49% 30.05 in 10.0 mi WNW 5.8 mph - N/A   Partly Cloudy
9:56 AM 42.1 °F 39.2 °F 18.0 °F 38% 30.02 in 10.0 mi NNW 4.6 mph - N/A   Partly Cloudy
10:56 AM 45.0 °F 43.5 °F 17.1 °F 33% 30.00 in 10.0 mi North 3.5 mph - N/A   Clear
11:56 AM 45.0 °F 39.3 °F 21.0 °F 39% 29.99 in 10.0 mi SW 11.5 mph - N/A   Scattered Clouds
12:56 PM 44.1 °F 37.1 °F 21.9 °F 42% 29.95 in 10.0 mi South 15.0 mph - N/A   Scattered Clouds
1:56 PM 44.1 °F 37.4 °F 23.0 °F 43% 29.94 in 10.0 mi SSW 13.8 mph 23.0 mph N/A   Mostly Cloudy
2:56 PM 44.1 °F 37.7 °F 23.0 °F 43% 29.92 in 10.0 mi SSW 12.7 mph 20.7 mph N/A   Scattered Clouds
3:56 PM 42.1 °F 34.9 °F 25.0 °F 51% 29.90 in 10.0 mi SW 13.8 mph 21.9 mph N/A   Scattered Clouds
4:56 PM 42.1 °F 37.1 °F 26.1 °F 53% 29.91 in 10.0 mi SW 8.1 mph - N/A   Mostly Cloudy
5:56 PM 42.1 °F 38.4 °F 28.9 °F 60% 29.94 in 10.0 mi SW 5.8 mph - N/A   Overcast
6:56 PM 39.9 °F 37.8 °F 30.9 °F 70% 29.95 in 10.0 mi West 3.5 mph - N/A   Overcast
7:56 PM 42.1 °F 37.7 °F 30.9 °F 65% 29.96 in 10.0 mi NW 6.9 mph - N/A   Overcast
8:56 PM 39.9 °F 35.8 °F 32.0 °F 73% 29.97 in 10.0 mi SW 5.8 mph - 0.00 in   Overcast
9:56 PM 37.0 °F 32.4 °F 32.0 °F 82% 29.98 in 10.0 mi WSW 5.8 mph - N/A   Mostly Cloudy
10:56 PM 37.0 °F 31.6 °F 32.0 °F 82% 29.99 in 10.0 mi West 6.9 mph - N/A   Partly Cloudy
11:56 PM 37.0 °F 32.4 °F 30.0 °F 76% 29.99 in 10.0 mi West 5.8 mph - N/A   Clear